Preview of NWS' New Version of Forecast
This preview is not operational and should not be used for support decisions.
Latest weather observations around

Batavia Clermont County Airport (KI69)

Using English Units (Switch to International System of Units)
Date/ Time (EDT) Wind (mph) Vis. (mi) Weather Sky Cond. Temp (°F) Rel. Humidity Wind Chill (°F) Heat Index (°F) Pressure Precip. (in)
Air Dwpt 6 hour Altimeter (inHg) Sea level (inHg) 1 hr 3 hr 6 hr
Max Min
Notice The following observation data may not be complete
Mar 24 01:15   10 Clear CLR          %              
Mar 24 00:55 Calm 10 Clear CLR 40 22     49%     30.26        
Mar 24 00:35 Calm 10 Clear CLR 40 21     47%     30.27        
Mar 24 00:15 Calm 10 Clear CLR 40 21     46%     30.27        
Mar 23 23:55 Calm 10 Clear CLR 41 21     44%     30.27        
Mar 23 23:35 Calm 10 Clear CLR 42 21     42%     30.28        
Mar 23 23:16 Calm 10 Clear CLR 44 22     42%     30.28        
Mar 23 22:55 Calm 10 Clear CLR 44 23     44%     30.28        
Mar 23 22:35 SE 3 10 Clear CLR 45 23     42% 43   30.29        
Mar 23 22:16 Calm 10 Clear CLR 44 23     44%     30.29        
Mar 23 21:55 Calm 10 Clear CLR 46 18     32%     30.29        
Mar 23 21:35 Calm 10 Clear CLR 47 18     31%     30.28        
Mar 23 21:16 Calm 10 Clear CLR 48 17     29%     30.28        
Mar 23 20:55 Calm 10 Clear CLR 49 21     33%     30.28        
Mar 23 20:35 Calm 10 Clear CLR 50 19     29%     30.27        
Mar 23 20:15 Calm 10 Clear CLR 52 16     23%     30.27        
Mar 23 19:55 Calm 10 Clear CLR 52 16     23%     30.28        
Mar 23 19:35 Calm 10 Clear CLR 53 18     25%     30.28        
Mar 23 19:15 WSW 5 10 Clear CLR 54 17     23%     30.28        
Mar 23 18:55 SW 3 10 Clear CLR 55 17     22%     30.28        
Mar 23 18:35 SSW 3 10 Clear CLR 55 17     22%     30.28        
Mar 23 18:15 ESE 5 10 Clear CLR 56 16     21%     30.28        
Mar 23 17:55 Calm 10 Clear CLR 55 17     22%     30.28        
Mar 23 17:35 ESE 3 10 Clear CLR 55 17     22%     30.28        
Mar 23 17:15 SW 3 10 Clear CLR 55 17     22%     30.28        
Mar 23 16:55 S 5 10 Clear CLR 55 20     25%     30.29        
Mar 23 16:35 Calm 10 Clear CLR 54 19     25%     30.29        
Mar 23 16:15 Calm 10 Clear CLR 54 19     25%     30.3        
Mar 23 15:55 NW 5 10 Clear CLR 53 16     23%     30.3        
Mar 23 15:35 WSW 6 10 Clear CLR 54 18     25%     30.31        
Mar 23 15:15 Calm 10 Clear CLR 53 21     29%     30.31        
Mar 23 14:55 S 5 10 Clear CLR 52 24     33%     30.32        
Mar 23 14:35 WSW 5 10 Clear CLR 51 23     34%     30.32        
Mar 23 14:15 S 3 10 Clear CLR 51 25     37%     30.33        
Mar 23 13:55 NW 3 10 Clear CLR 50 24     36% 49   30.34        
Mar 23 13:35 Calm 10 Clear CLR 48 23     36%     30.34        
Mar 23 13:15 W 3 10 Clear CLR 47 21     36% 46   30.34        
Mar 23 12:55 NE 5 10 Clear CLR 46 22     39% 44   30.34        
Mar 23 12:35 Calm 10 Clear   44 24     43%     30.34        
Mar 23 12:15 Calm 10 Clear   43 25     48%     30.35        
Mar 23 11:55 Calm 10 Clear   42 25     51%     30.35        
Mar 23 11:35 Calm 10 Clear CLR 40 26     57%     30.35        
Mar 23 11:15 Calm 10 Clear CLR 39 25     58%     30.35        
Mar 23 10:55 Calm 10 Clear CLR 38 25     61%     30.35        
Mar 23 10:35 Calm 10 Clear CLR 36 27     68%     30.34        
Mar 23 10:15 Calm 10 Clear CLR 36 26     68%     30.34        
Mar 23 09:55 Calm 10 Clear CLR 34 27     75%     30.34        
Mar 23 09:35 NNE 3 10 Clear CLR 33 27     79% 30   30.32        
Mar 23 09:15 NNE 3 10 Clear CLR 32 27     80% 29   30.32        
Mar 23 08:55 Calm 10 Clear CLR 31 26     80%     30.31        
Mar 23 08:35 Calm 10 Clear CLR 30 26     85%     30.3        
Mar 23 08:15 Calm 10 Clear CLR 29 25     86%     30.29        
Mar 23 07:55 Calm 10 Clear CLR 29 25     85%     30.29        
Mar 23 07:36 NNW 3 10 Clear CLR 29 25     84% 25   30.28        
Mar 23 07:15 Calm 10 Clear CLR 29 25     83%     30.27        
Mar 23 06:55 NNW 3 10 Clear CLR 29 25     82% 26   30.27        
Mar 23 06:36 NNW 3 10 Clear CLR 29 25     82% 26   30.26        
Mar 23 06:15 WNW 3 10 Clear CLR 30 25     81% 27   30.26        
Mar 23 05:55 WNW 3 10 Clear CLR 30 25     79% 27   30.25        
Mar 23 05:36 Calm 10 Clear CLR 30 25     79%     30.24        
Mar 23 05:15 N 6 10 Clear CLR 30 24     79% 24   30.24        
Mar 23 04:55 NW 3 10 Clear CLR 31 25     77% 28   30.24        
Mar 23 04:36 WNW 5 10 Clear CLR 31 25     76% 27   30.24        
Mar 23 04:15 NW 5 10 Clear CLR 32 25     75% 27   30.23        
Mar 23 03:55 NW 6 10 Clear CLR 32 25     75% 26   30.22        
Mar 23 03:36 NW 5 10 Clear CLR 32 25     74% 27   30.22        
Mar 23 03:15 NW 5 10 Clear CLR 32 25     73% 28   30.22        
Mar 23 02:55 NW 5 10 Clear CLR 33 25     71% 29   30.22        
Mar 23 02:35 NNW 6 10 Clear CLR 33 24     69% 28   30.21        
Mar 23 02:15 NW 5 10 Clear CLR 34 24     67% 30   30.21        
Mar 23 01:55 NNW 7 10 Clear CLR 34 24     65% 28   30.2        
Mar 23 01:35 NNW 7 10 Clear CLR 35 24     63% 29   30.2        
Mar 23 01:15 NNW 9 10 Clear CLR 36 24     64% 29   30.2        
Mar 23 00:55 NNW 7 10 Clear CLR 36 25     63% 31   30.19        
Mar 23 00:35 N 8 10 Clear CLR 37 25     61% 31   30.19        
Mar 23 00:15 NNW 7 10 Clear CLR 37 25     61% 32   30.19        
Mar 22 23:55 NNW 14 10 Clear CLR 38 25     59% 30   30.19        
Mar 22 23:35 NNW 6 10 Clear CLR 38 26     59% 34   30.19        
Mar 22 23:15 NW 9 10 Clear CLR 39 26     59% 33   30.18        
Mar 22 22:55   10 Clear CLR 40 26     57%     30.17        
Mar 22 22:35 NW 15 10 Clear CLR 41 26     57% 33   30.16        
Mar 22 22:15 NW 10 10 Clear CLR 41 26     54% 35   30.16        
Mar 22 21:55 NNW 10 10 Clear CLR 42 25     51% 36   30.14        
Mar 22 21:35 NW 13 10 Clear CLR 43 25     49% 36   30.13        
Mar 22 21:15 NW 8 10 Clear CLR 43 25     48% 39   30.12        
Mar 22 20:55 NW 7 10 Clear CLR 44 25     47% 40   30.11        
Mar 22 20:35 NW 9 10 Clear CLR 44 25     46% 39   30.1        
Mar 22 20:15 NW 8 10 Clear CLR 45 25     45% 40   30.09        
Mar 22 19:55 NW 14 10 Clear CLR 46 24     43% 40   30.08        
Mar 22 19:35 NW 11 10 Partly Cloudy SCT060 46 24     41% 41   30.07        
Mar 22 19:15 NW 13 10 Partly Cloudy SCT060 47 24     40% 42   30.06        
Mar 22 18:55 NNW 14 10 Partly Cloudy SCT060 48 25     40% 42   30.06        
Mar 22 18:35 NW 15 10 Partly Cloudy SCT060 48 24     39% 43   30.05        
Mar 22 18:15 NW 10 10 Partly Cloudy SCT060 48 24     40% 43   30.05        
Mar 22 17:55 NNW 10 10 Clear CLR 48 26     41% 44   30.04        
Mar 22 17:35 NW 16 10 Partly Cloudy SCT055 49 25     38% 43   30.03        
Mar 22 17:15 NNW 16 10 Partly Cloudy SCT055 49 25     39% 43   30.03        
Mar 22 16:55 NW 15 10 Partly Cloudy SCT055 48 25     41% 42   30.02        
Mar 22 16:35 NW 14 10 Partly Cloudy SCT060 SCT065 50 27     41% 44   30.02        
Mar 22 16:15 NNW 16 10 Partly Cloudy SCT060 SCT070 48 26     41% 42   30.01        
Mar 22 15:55 NW 15 10 Mostly Cloudy BKN060 BKN070 48 25     41% 42   30.01        
Mar 22 15:35 NW 15 10 Mostly Cloudy BKN060 51 27     39%     30        
Mar 22 15:15   10 Mostly Cloudy BKN060 48 25     41%     29.99        
Mar 22 14:55 NW 17 10 Mostly Cloudy BKN060 49 26     41% 42   29.99        
Mar 22 14:35 NNW 18 10 Partly Cloudy SCT050 SCT065 48 26     43% 41   29.99        
Mar 22 14:15 NNW 18 10 Partly Cloudy SCT043 SCT055 SCT065 49 29     46% 42   29.98        
Mar 22 13:55 NNW 16 10 Cloudy BKN045 OVC055 45 27     48% 38   29.99        
Mar 22 13:36 N 15 10 Mostly Cloudy SCT039 BKN047 BKN050 46 29     51% 39   29.98        
Mar 22 13:15 NNW 18 10 Mostly Cloudy SCT036 SCT043 BKN049 46 30     52% 39   29.98        
Mar 22 12:55 NW 17 10 Cloudy SCT031 BKN037 OVC048 45 32     59% 38   29.97        
Mar 22 12:36 NW 16 10 Cloudy SCT029 OVC036 46 33     62% 39   29.97        
Mar 22 12:15 NW 13 10 Cloudy BKN028 OVC036 46 35     65% 40   29.96        
Mar 22 11:55   10 Cloudy OVC028 45 35     66%     29.95        
Mar 22 11:36 WNW 15 10 Mostly Cloudy BKN028 BKN035 47 35     64% 40   29.94        
Mar 22 11:15   10 Clear CLR 46 36     68%     29.92        
Mar 22 10:55 WNW 11 10 Clear CLR 45 36     69% 40   29.91        
Mar 22 10:36 W 13 10 Clear CLR 44 35     71% 38   29.9        
Mar 22 10:15 W 13 10 Partly Cloudy SCT016 43 35     74% 36   29.91        
Mar 22 09:55 W 10 10 Partly Cloudy SCT016 42 35     77% 36   29.91        
Mar 22 09:35 W 9 10 Partly Cloudy SCT016 41 35     79% 35   29.91        
Mar 22 09:15 W 9 10 Clear CLR 40 35     80% 34   29.91        
Mar 22 08:56 W 9 10 Clear CLR 39 34     83% 33   29.91        
Mar 22 08:35 W 13 10 Clear CLR 38 34     84% 30   29.92        
Mar 22 08:15 W 13 10 Clear CLR 38 34     86% 30   29.91        
Mar 22 07:56 WSW 11 10 Clear CLR 38 34     85% 30   29.91        
Mar 22 07:35 WSW 11 10 Clear CLR 38 34     86% 30   29.91        
Mar 22 07:15 WSW 11 10 Clear CLR 38 34     84% 31   29.91        
Mar 22 06:56 WSW 14 10 Clear CLR 38 34     85% 30   29.91        
Mar 22 06:35 WSW 13 10 Clear CLR 38 34     85% 30   29.91        
Mar 22 06:15 WSW 10 10 Clear CLR 38 34     85% 31   29.91        
Mar 22 05:56 WSW 10 10 Clear CLR 38 34     84% 32   29.91        
Mar 22 05:35 WSW 10 10 Clear CLR 39 35     84% 32   29.92        
Mar 22 05:15 WSW 10 10 Partly Cloudy SCT035 39 34     82% 33   29.92        
Mar 22 04:55 WSW 11 10 Mostly Cloudy BKN035 40 35     81% 33   29.93        
Mar 22 04:35 WSW 8 10 Cloudy BKN039 OVC044 41 35     80% 35   29.94        
Mar 22 04:15 WSW 10 10 Cloudy BKN039 OVC047 41 35     78% 35   29.94        
Mar 22 03:55 W 9 10 Cloudy SCT036 OVC046 41 35     78% 35   29.96        
Mar 22 03:35 W 10 10 Cloudy OVC043 41 34     77% 35   29.97        
Mar 22 03:15 W 7 10 Cloudy OVC043 41 34     76% 37   29.97        
Mar 22 02:55 W 9 10 Cloudy SCT029 OVC039 41 34     75% 35   29.98        
Mar 22 02:35 W 7 10 Cloudy SCT031 OVC039 41 34     76% 37   29.98        
Mar 22 02:15 WNW 10 10 Cloudy SCT027 OVC037 41 34     75% 35   29.98        
Mar 22 01:55 WNW 6 10 Cloudy SCT031 OVC037 41 35     76% 37   29.99        
Mar 22 01:35 WNW 10 10 Cloudy OVC033 42 34     74% 35   29.99        
Mar 22 01:15 WNW 10 10 Cloudy OVC035 42 34     74% 35   29.99        
Mar 22 00:55 WNW 14 10 Cloudy SCT021 SCT028 OVC033 42 34     74% 35   29.99        
Mar 22 00:35 NW 14 10 Cloudy BKN021 OVC030 42 36     78% 35   29.99        
Mar 22 00:15 WNW 14 10 Cloudy BKN018 BKN031 OVC041 43 38     82% 36   29.99        
Mar 21 23:55 WNW 14 10 Cloudy OVC018 43 38     84% 36   29.99        
Mar 21 23:35 WNW 9 10 Cloudy OVC018 43 38     84% 37   29.98        
Mar 21 23:15 W 7 10 Cloudy OVC016 43 38     84% 39   29.98        
Mar 21 22:55 WNW 9 10 Cloudy OVC016 43 38     83% 38   29.98        
Mar 21 22:35 WNW 7 10 Cloudy OVC020 43 38     84% 39   29.97        
Mar 21 22:15 WNW 8 10 Cloudy BKN018 OVC026 44 38     81% 39   29.97        
Mar 21 21:55 WNW 9 10 Cloudy SCT018 BKN028 OVC043 44 38     81% 39   29.96        
Mar 21 21:35   10 Cloudy BKN037 OVC044 44 39     81%     29.96        
Mar 21 21:15   10 Cloudy BKN036 OVC043 45 39     80%     29.95        
Mar 21 20:55   10 Mostly Cloudy BKN032 BKN041 45 39     80%     29.94        
Mar 21 20:35 WNW 8 10 Mostly Cloudy BKN030 BKN041 45 39     80% 41   29.94        
Mar 21 20:15 W 9 10 Cloudy BKN030 OVC036 45 40     81% 40   29.93        
Mar 21 19:55 W 8 10 Cloudy BKN030 BKN041 OVC055 45 40     81% 41   29.93       0
Mar 21 19:35 W 9 10 Cloudy SCT034 BKN060 OVC065 45 40     81% 41   29.92        
Mar 21 19:15 W 7 10 Mostly Cloudy SCT036 SCT050 BKN060 45 40     84% 41   29.92        
Mar 21 18:56 W 10 10 Cloudy SCT038 OVC060 45 41     85% 40   29.92        
Mar 21 18:35 W 9 10 Cloudy SCT034 SCT043 OVC050 45 41     85% 40   29.91        
Mar 21 18:15 W 9 10 Cloudy SCT041 OVC048 45 41     85% 41   29.91        
Mar 21 17:56 W 10 10 Cloudy SCT029 BKN038 OVC048 46 43     89% 41   29.9        
Mar 21 17:35 WNW 10 7 Cloudy SCT030 BKN046 OVC060 46 42     88% 41   29.9        
Mar 21 17:15 NW 13 10 Rain SCT034 OVC046 45 41     83% 40   29.89        
Mar 21 16:56   10 Cloudy SCT028 BKN034 OVC050 46 41     81%     29.89     0  
Mar 21 16:35 NW 14 10 Cloudy SCT027 BKN036 OVC070 49 40     69% 44   29.87        
Mar 21 16:15 NNW 8 10 Cloudy SCT016 BKN070 OVC080 49 42     75% 46   29.88        
Mar 21 15:56 WNW 7 10 Cloudy BKN016 OVC090 49 43     81% 46   29.87        
Mar 21 15:35 NNW 8 10 Cloudy SCT014 SCT050 OVC090 48 42     80% 44   29.88        
Mar 21 15:15 NNW 8 10 Cloudy SCT050 BKN080 OVC090 47 42     85% 43   29.88        
Mar 21 14:56 N 5 10 Cloudy SCT034 BKN047 OVC060 45 43     90% 43   29.89   0    
Mar 21 14:35 NE 3 7 Light Snow OVC033 44 40     89% 42   29.89   0    
Mar 21 14:15 Calm 10 Cloudy SCT007 BKN034 OVC045 43 40     89%     29.9        
Mar 21 13:55 NNW 7 10 Cloudy SCT007 BKN022 OVC029 42 40     93% 38   29.91   0   0
Mar 21 13:35 NNW 6 1.75 Light Snow BKN007 BKN010 OVC030 42 41     97% 38   29.91   0    
Mar 21 13:15 NW 13 3 Light Snow BKN009 BKN020 OVC028 41 39     93% 34   29.91   0    
Mar 21 12:55 WSW 8 10 Cloudy SCT012 BKN022 OVC032 47 43     86% 43   29.89        
Mar 21 12:35 SW 5 10 Cloudy SCT028 BKN044 OVC065 47 44     90% 45   29.89        
Mar 21 12:15 W 5 7 Cloudy SCT012 BKN022 OVC045 46 43     91% 43   29.9        
Mar 21 11:55 WNW 6 10 Light Rain BKN012 OVC022 46 43     88% 43   29.9        
Mar 21 11:35 W 6 10 Cloudy SCT014 OVC024 46 42     85% 43   29.9        
Mar 21 11:15 W 7 10 Light Drizzle SCT012 OVC024 46 43     88% 42   29.91        
Mar 21 10:55 W 6 10 Cloudy SCT010 SCT016 OVC024 46 43     90% 43   29.91        
Mar 21 10:35 W 7 10 Cloudy BKN010 OVC013 45 43     90% 42   29.91        
Mar 21 10:15 WSW 5 10 Cloudy BKN008 OVC012 45 43     92% 43   29.91        
Mar 21 09:55 WSW 7 7 Cloudy OVC008 45 44     95% 41   29.91        
Mar 21 09:35 WSW 6 7 Cloudy OVC006 45 43     95% 41   29.91        
Mar 21 09:15 SW 7 7 Cloudy OVC008 44 43     96% 40   29.91        
Mar 21 08:55 SW 8 10 Cloudy OVC008 44 42     95% 39   29.91        
Mar 21 08:35 SW 7 10 Cloudy BKN010 BKN013 OVC021 44 42     95% 40   29.91        
Mar 21 08:15 SW 6 7 Cloudy OVC022 44 42     95% 40   29.91        
Mar 21 07:55 SW 7 10 Cloudy BKN022 BKN026 OVC047 44 42     95% 40   29.92        
Mar 21 07:35 SW 6 7 Light Snow BKN028 BKN045 OVC075 44 42     95% 40   29.91        
Mar 21 07:15 WSW 7 10 Cloudy BKN030 OVC039 44 42     93% 40   29.92        
Mar 21 06:55 SW 5 10 Cloudy SCT032 BKN046 OVC055 44 42     93% 41   29.92        
Mar 21 06:35 SW 6 10 Cloudy SCT012 SCT024 OVC046 44 42     93% 40   29.92        
Mar 21 06:15 SW 3 10 Cloudy SCT014 BKN023 OVC031 44 42     91% 43   29.92        
Mar 21 05:55 SW 5 10 Cloudy BKN021 OVC030 45 42     90% 42   29.92        
Mar 21 05:35 SW 5 10 Cloudy BKN023 OVC031 45 42     89% 42   29.93        
Mar 21 05:15 SSW 3 10 Cloudy SCT030 OVC039 44 41     90% 43   29.92        
Mar 21 04:55 Calm 10 Cloudy BKN042 BKN048 OVC060 44 41     89%     29.93        
Mar 21 04:35 Calm 10 Cloudy SCT044 OVC060 44 41     89%     29.94        
Mar 21 04:15 Calm 10 Cloudy SCT034 BKN044 OVC060 45 41     87%     29.95        
Mar 21 03:55 Calm 10 Cloudy SCT018 BKN047 OVC060 45 41     88%     29.96        
Mar 21 03:35 Calm 10 Cloudy SCT018 BKN032 OVC060 45 41     86%     29.97        
Mar 21 03:15 WSW 6 10 Cloudy SCT024 BKN029 OVC035 45 41     85% 42   29.98        
Mar 21 02:55 W 7 10 Cloudy BKN020 OVC025 45 41     84% 42   29.99        
Mar 21 02:35 W 3 10 Drizzle OVC020 46 42     85% 45   29.98        
Mar 21 02:15 WSW 5 10 Drizzle BKN023 BKN050 OVC065 46 41     82% 44   29.99        
Mar 21 01:55 W 7 10 Light Drizzle SCT050 BKN065 OVC090 47 40     78% 44   29.99        
Mar 21 01:35 W 7 10 Light Drizzle SCT050 BKN065 OVC075 47 40     77% 44   29.99        
Mar 21 01:15 W 9 10 Light Rain BKN070 BKN085 OVC090 47 40     76% 43   30        
Mar 21 00:35 W 13 10 Cloudy BKN070 OVC080 48 40     73% 43   30        
Mar 21 00:15   10 Cloudy SCT070 OVC080 49 39     70%     30        
Mar 20 23:55 W 8 10 Cloudy SCT065 OVC090 49 38     64% 46   30.01        
May 15 12:56 SW 9 10 Clear CLR 85 60     44%   85 29.97        
May 15 09:56 W 6 10 Clear CLR 78 60     53%   78          
May 15 09:37 WSW 6 10 Clear CLR 78 60     55%   78 29.94        
May 15 09:16 WSW 8 10 Clear CLR 77 60     56%   77 29.94        
May 15 07:16 WSW 6 10 Clear CLR 71 64     80%   72          
May 15 05:57 SW 6 10 Partly Cloudy SCT090 72 64     75%   73          
May 15 02:57 SW 6 10 Clear CLR 74 63     69%   74          
May 15 01:57 SSW 3 10 Clear CLR 74 63     67%   75 29.9        
May 15 01:16 SSW 3 10 Clear CLR 75 62     65%   75          
May 14 15:56 NE 5 10 Partly Cloudy SCT060 85 65     52%   87          
May 14 11:56 WNW 11 10 Clear CLR 85 64     50%   86          
May 14 09:37 WSW 7 10 Clear CLR 79 65     63%   79          
May 14 06:57 SW 5 10 Clear CLR 69 63     81%              
May 14 06:36 SW 5 10 Clear   69 63     81%     30        
May 13 17:17 SW 14 10 Mostly Cloudy SCT050 BKN070 BKN085 86 63     47%   87 29.98        
May 13 16:37 WSW 13 10 Partly Cloudy SCT050 SCT065 SCT085 87 63     46%   88 29.98        
May 13 11:37   10 Partly Cloudy SCT047 82 63     53%   83 30.04        
May 13 05:57 SW 5 10 Clear CLR 67 62     83%     30.03        
May 13 04:36 Calm 10 Clear CLR 66 62     88%              
May 13 00:57 SSW 5 10 Clear CLR 73 63     71%   73          
May 12 20:17 Calm 10 Clear CLR 80 61     54%   80          
May 12 19:56 S 5 10 Clear CLR 80 61     53%   81 30        
May 12 13:17   10 Partly Cloudy SCT047 83 61     48%   83 30.05        
May 12 09:17 WSW 13 10 Clear CLR 75 60     59%   75          
Notice The following observation data may not be complete
May 12 07:37   10 Clear CLR          %              
May 12 02:17 SW 3 10 Clear CLR 71 59     68%   70          
May 12 00:56 Calm 10 Clear CLR 73 59     60%   73 30.01        
May 11 21:56 Calm 5 Haze CLR 76 58     53%   76          
May 11 20:17 SSW 5 10 Clear CLR 80 56     45%   79          
May 11 19:56 SW 5 10 Clear CLR 81 56     43%   81 29.95        
May 11 17:56 SW 10 10 Clear CLR 85 55     37%   84 29.95        
May 11 17:37   10 Clear CLR 85 56     37%   83 29.94        
May 11 16:37 SW 15 10 Partly Cloudy SCT065 84 55     37%   83 29.97        
May 11 14:17   10 Partly Cloudy SCT055 84 55     38%   83 30        
May 11 12:37 WSW 10 10 Clear CLR 79 63     57%   80          
May 11 12:17 SSW 7 10 Clear CLR 78 62     58%   79 30.04        
May 11 08:17 Calm 10 Clear CLR 63 56     77%              
Notice The following observation data may not be complete
Jun 12 07:36   10 Clear CLR          %              
Jun 12 07:16 SW 3 10 Clear CLR 72 63     72%   73          
Jun 12 03:36 Calm 10 Mostly Cloudy BKN055 71 61     71%   71          
Jun 11 22:56 S 3 10 Clear CLR 76 60     58%   76          
Jun 11 22:16 S 3 10 Clear CLR 77 60     56%   77 30.08        
Jun 11 18:36 SSW 8 10 Partly Cloudy SCT065 85 57     39%   84 30.1        
Jun 11 09:36 SW 9 10 Partly Cloudy SCT055 77 61     58%   77          
Jun 11 07:16 SSW 3 10 Clear CLR 67 60     77%              
Jun 10 23:56 Calm 10 Clear CLR 71 59     64%   71          
Jun 10 21:36 SSW 5 10 Clear CLR 76 58     53%   76          
Jun 10 18:56 SSW 9 10 Clear CLR 83 55     38%   82 30.01        
Jun 10 09:55 SW 6 10 Clear CLR 73 57     57%   73          
Jun 10 03:16 SW 6 10 Clear CLR 65 54     68%              
Notice The following observation data may not be complete
Jun 09 21:36   10 Clear CLR          %              
Jun 09 19:56 SW 8 10 Clear CLR 78 50     36%   78 29.92        
Jun 09 17:16 SW 8 10 Clear   81 48     32%   80 29.92        
Notice The following observation data may not be complete
Jun 09 15:16   10 Clear CLR          %              
Jun 09 13:36 SW 9 10 Clear CLR 78 50     37%   78 29.97        
Notice The following observation data may not be complete
Jun 09 05:36   10 Clear CLR          %              
Notice The following observation data may not be complete
Jun 09 04:36   10 Clear CLR          %              
Jun 09 00:36 Calm 10 Clear CLR 57 53     84%     29.92        
Jun 08 23:15 Calm 10 Clear CLR 63 53     71%     29.92        
Jun 08 20:15 WNW 5 10 Clear CLR 72 49     43%   71 29.9        
Jun 08 08:35 NNE 7 10 Clear CLR 57 52     84%              
Jun 08 03:35 Calm 10 Clear CLR 51 49     93%              
Jun 08 00:16 Calm 10 Clear CLR 55 50     83%     30.04        
Jun 07 16:55 NNE 10 10 Cloudy SCT041 SCT049 OVC060 64 49     59%     30.03        
Jun 07 12:36 NE 7 10 Cloudy BKN047 OVC050 63 51     64%              
Jun 07 10:15 NE 9 10 Cloudy SCT023 BKN036 OVC046 64 52     64%              
Jun 07 09:36 ENE 8 10 Cloudy SCT020 BKN026 OVC034 63 53     70%              
Jun 06 10:35 NNE 8 10 Clear CLR 66 52     61%     29.96        
Jun 06 08:35 NE 5 10 Clear CLR 61 54     78%     29.95        
Jun 06 04:15 NE 5 10 Clear CLR 58 54     84%              
Jun 06 02:35 NE 3 10 Clear CLR 60 55     84%              
Jun 06 00:55 NE 8 10 Clear CLR 64 59     83%              
Jun 05 23:55 NE 5 10 Partly Cloudy SCT080 SCT095 SCT110 66 62     87%              
Jun 05 21:55 Calm 10 Mostly Cloudy SCT075 BKN090 68 64     88%              
Notice The following observation data may not be complete
Jun 05 21:35   10 Mostly Cloudy SCT065 BKN100 BKN120          %              
Jun 05 20:16 NE 3 10 Partly Cloudy SCT017 SCT026 SCT085 70 65     86%     29.77